Weather in Peremilovo

Russia / Ivanovo Oblast     57°15′07″N   41°30′49″E
temp.,
°C
wind,
m/s
gust,
m/s
humid.,
%
clouds,
%
prec.,
mm/h
press.,
hPa
HPBL,
m
14 june, mon
mon1400:00+15wsw22895 0.0 101016
03:00+14wsw229292 0.0 101125
06:00+16sw248963 0.0 1012122
09:00+20sw34747 0.3 1013357
12:00+24sw34578 0.6 10141448
15:00+24wnw44554 1.2 10141346
18:00+22wnw1267100 0.0 1013371
21:00+18wnw117919 0.0 101411
15 june, tue
tue1500:00+18wnw11776 0.0 101411
03:00+16e008477 0.0 101411
06:00+19se11781 0.0 101483
09:00+22s126940 0.0 1014532
12:00+24s23619 0.0 10121031
15:00+25sw34550 0.5 10111544
18:00+21s357899 0.4 101091
21:00+19wsw12843 0.8 101011
16 june, wed
wed1600:00+16ssw118812 1.0 100911
03:00+16s118941 1.1 100911
06:00+17wsw2391100 0.8 1009111
09:00+19nnw468687 1.6 1009303
12:00+15nnw61293100 1.1 1011452
15:00+21nw686446 1.1 10121590
18:00+19nw611671 0.0 1013734
21:00+14nw4581100 0.0 101580
17 june, thu
thu1700:00+12nw47734 0.0 1017117
03:00+10nw410700 0.0 1019177
06:00+12nw410740 0.0 1020292
09:00+17nw58630 0.0 1022782
12:00+19nw69541 0.0 10221571
15:00+20wnw586599 0.0 10221073
18:00+20nw48671 0.0 1023547
21:00+15nw33810 0.0 102328
18 june, fri
fri1800:00+13nw22792 0.0 102410
03:00+12wnw12750 0.0 102610
06:00+15w227517 0.0 102681
09:00+20w23631 0.0 1026465
12:00+23w34555 0.0 10261284
15:00+24wnw465560 0.0 10251379
18:00+23wnw36685 0.0 1024523
21:00+19wsw33775 0.0 102437